Find Hispasat 1C

NORAD ID: 26071 Int'l Des: 2000-007 Owner: HISP Country: E operational
HEOCIRCULAR

Current View

Loading 3D Globe...

About Hispasat 1C

Hispasat 1C (NORAD 26071) is a satellite launched Feb 3, 2000 by HISP of E. It operates in HEO, CIRCULAR orbit with a mass of 3112.00 kg.

Upcoming Passes

Passes for default location (London). Set your location on the main map for personalized predictions.

Altitude History

Loading altitude history...

Two-Line Element Set

1 26071U 00007A 26194.14576727 .00000080 00000-0 00000+0 0 9991
2 26071 8.4522 63.3498 0003147 192.2706 150.7931 0.99199251 47545
Epoch: Jul 13, 2026 • Age: 22 hours

Current Status

Altitude 36095.9 km
Apogee / Perigee N/A
Velocity 3.06 km/s
Sub-Earth Point -6.85°S, 59.76°E
Launch Date Feb 3, 2000
Age 26.4 years
Type other

Technical Details

Classification Payload
Mass 3112.00 kg
Dry Mass 1300.00 kg
Total Mass 3112.00 kg
Length 4.20 m
Diameter 2.50 m
Span 26.00 m
Shape Box + 2 Pan
Manufacturer ALC
Bus Type Spacebus 3000B2
Phase Status Renamed
Owner/State HISP/E

Most Searched